Location: Pagani
(40.7500°N, 14.6167°E)
Time: 20:24:37
(UTC+00:00)

BREEZE-M DEB (TANK) - Pass Details

Date: 15 May 2026
Orbit: 344 x 16116 km, 49.4° (Epoch: 6 June)

Event Time Altitude Azimuth Distance (km) Brightness Sun altitude
Rises 19:17:38 0° 292° (WNW) 2,466 7.3 -11.4°
Reaches altitude 10° 19:19:06 10° 283° (WNW) 1,847 6.1 -11.6°
Maximum altitude 19:22:36 40° 211° (SSW) 1,336 4.2 -12.1°
Enters shadow 19:31:05 13° 148° (SSE) 4,636 6.4 -13.4°
